• en France
  • Liste des pays
  • À 7 jours
  • Température de l'eau
  • Carte satellitaire
  • Carte météo
  • Widgets météo
  • user-avatar
    Se connecter

    Météo par heure à Inverness

    Ce jour, 21 Janvier, Dimanche

    Heure Température Précipitation Vent Pression Humidité
    00:00 -4°C° 0 mm 2 m/s 752 mmHg 88%
    01:00 -1°C° 0 mm 1 m/s 753 mmHg 88%
    02:00 -1°C° 0 mm 1 m/s 753 mmHg 87%
    03:00 -1°C° 0 mm 1 m/s 753 mmHg 86%
    04:00 -1°C° 0 mm 1 m/s 753 mmHg 85%
    05:00 -1°C° 0 mm 1 m/s 753 mmHg 85%
    06:00 -1°C° 0 mm 1 m/s 752 mmHg 84%
    07:00 -2°C° 0 mm 2 m/s 752 mmHg 83%
    08:00 -2°C° 0 mm 2 m/s 752 mmHg 83%
    09:00 -2°C° 0 mm 2 m/s 752 mmHg 82%
    10:00 -1°C° 0 mm 3 m/s 751 mmHg 79%
    11:00 -1°C° 0 mm 4 m/s 750 mmHg 76%
    12:00 0°C° 0 mm 4 m/s 749 mmHg 73%
    13:00 0°C° 0,2 mm 5 m/s 748 mmHg 75%
    14:00 0°C° 0,2 mm 5 m/s 747 mmHg 78%
    15:00 -1°C° 0,2 mm 5 m/s 746 mmHg 80%
    16:00 0°C° 0,7 mm 5 m/s 745 mmHg 83%
    17:00 0°C° 0,7 mm 5 m/s 744 mmHg 86%
    18:00 0°C° 0,7 mm 5 m/s 743 mmHg 89%
    19:00 +1°C° 0,6 mm 5 m/s 742 mmHg 90%
    20:00 +1°C° 0,6 mm 5 m/s 742 mmHg 91%
    21:00 +3°C° 0,6 mm 4 m/s 742 mmHg 92%
    22:00 +2°C° 0,1 mm 5 m/s 742 mmHg 92%
    23:00 +2°C° 0,1 mm 5 m/s 742 mmHg 92%

    Demain, 22 Janvier, Lundi

    Heure Température Précipitation Vent Pression Humidité
    00:00 +3°C° 0,1 mm 5 m/s 742 mmHg 93%
    01:00 +2°C° 0 mm 5 m/s 743 mmHg 92%
    02:00 +2°C° 0 mm 5 m/s 743 mmHg 92%
    03:00 +2°C° 0 mm 5 m/s 744 mmHg 92%
    04:00 +2°C° 0,1 mm 5 m/s 744 mmHg 92%
    05:00 +2°C° 0,1 mm 5 m/s 745 mmHg 92%
    06:00 +2°C° 0,1 mm 5 m/s 745 mmHg 91%
    07:00 +2°C° 0 mm 5 m/s 746 mmHg 91%
    08:00 +2°C° 0 mm 5 m/s 746 mmHg 91%
    09:00 +2°C° 0 mm 5 m/s 746 mmHg 91%
    10:00 +3°C° 0,1 mm 5 m/s 747 mmHg 91%
    11:00 +3°C° 0,1 mm 5 m/s 747 mmHg 91%
    12:00 +3°C° 0,1 mm 5 m/s 748 mmHg 90%
    13:00 +3°C° 0 mm 5 m/s 748 mmHg 90%
    14:00 +3°C° 0 mm 5 m/s 748 mmHg 90%
    15:00 +3°C° 0 mm 5 m/s 749 mmHg 90%
    16:00 +3°C° 0 mm 5 m/s 749 mmHg 91%
    17:00 +2°C° 0 mm 5 m/s 749 mmHg 91%
    18:00 +3°C° 0 mm 4 m/s 750 mmHg 92%
    19:00 +3°C° 0 mm 4 m/s 750 mmHg 92%
    20:00 +3°C° 0 mm 4 m/s 750 mmHg 92%
    21:00 +3°C° 0 mm 4 m/s 750 mmHg 92%
    22:00 +4°C° 0 mm 4 m/s 749 mmHg 92%
    23:00 +3°C° 0 mm 5 m/s 749 mmHg 92%

    Après-demain, 23 Janvier, Mardi

    Heure Température Précipitation Vent Pression Humidité
    00:00 +3°C° 0 mm 5 m/s 748 mmHg 92%
    01:00 +3°C° 0 mm 5 m/s 747 mmHg 91%
    02:00 +3°C° 0 mm 5 m/s 747 mmHg 91%
    03:00 +3°C° 0 mm 5 m/s 746 mmHg 91%
    04:00 +4°C° 0 mm 6 m/s 745 mmHg 91%
    05:00 +4°C° 0 mm 6 m/s 744 mmHg 91%
    06:00 +4°C° 0 mm 6 m/s 744 mmHg 90%
    07:00 +4°C° 0,3 mm 6 m/s 743 mmHg 90%
    08:00 +5°C° 0,3 mm 7 m/s 743 mmHg 89%
    09:00 +6°C° 0,3 mm 7 m/s 742 mmHg 88%
    10:00 +7°C° 0,2 mm 6 m/s 742 mmHg 89%
    11:00 +7°C° 0,2 mm 6 m/s 742 mmHg 89%
    12:00 +7°C° 0,2 mm 5 m/s 742 mmHg 90%
    13:00 +7°C° 0,5 mm 5 m/s 742 mmHg 90%
    14:00 +7°C° 0,5 mm 5 m/s 741 mmHg 90%
    15:00 +7°C° 0,5 mm 6 m/s 741 mmHg 90%
    16:00 +5°C° 0,1 mm 6 m/s 741 mmHg 90%
    17:00 +5°C° 0,1 mm 5 m/s 742 mmHg 89%
    18:00 +3°C° 0,1 mm 5 m/s 742 mmHg 88%
    19:00 +3°C° 0,1 mm 5 m/s 742 mmHg 88%
    20:00 +3°C° 0,1 mm 5 m/s 742 mmHg 88%
    21:00 +2°C° 0,1 mm 5 m/s 742 mmHg 89%
    22:00 +2°C° 0,1 mm 5 m/s 741 mmHg 89%
    23:00 +3°C° 0,1 mm 4 m/s 741 mmHg 89%

    24 Janvier, Mercredi

    Heure Température Précipitation Vent Pression Humidité
    00:00 +3°C° 0,1 mm 4 m/s 741 mmHg 89%
    01:00 +3°C° 0,1 mm 3 m/s 739 mmHg 90%
    02:00 +3°C° 0,1 mm 3 m/s 738 mmHg 91%
    03:00 +3°C° 0,1 mm 2 m/s 736 mmHg 92%
    04:00 +3°C° 1,9 mm 3 m/s 735 mmHg 93%
    05:00 +3°C° 1,9 mm 3 m/s 733 mmHg 94%
    06:00 +3°C° 1,9 mm 4 m/s 731 mmHg 96%
    07:00 +2°C° 1,8 mm 6 m/s 732 mmHg 93%
    08:00 +1°C° 1,8 mm 8 m/s 732 mmHg 91%
    09:00 +1°C° 1,8 mm 9 m/s 733 mmHg 88%
    10:00 +1°C° 0,3 mm 8 m/s 734 mmHg 87%
    11:00 +3°C° 0,3 mm 7 m/s 735 mmHg 86%
    12:00 +3°C° 0,3 mm 6 m/s 736 mmHg 85%
    13:00 +3°C° 0,1 mm 6 m/s 737 mmHg 85%
    14:00 +3°C° 0,1 mm 6 m/s 737 mmHg 86%
    15:00 +3°C° 0,1 mm 6 m/s 737 mmHg 86%
    16:00 +2°C° 0 mm 5 m/s 737 mmHg 86%
    17:00 +2°C° 0 mm 5 m/s 737 mmHg 85%
    18:00 +1°C° 0 mm 5 m/s 737 mmHg 84%
    19:00 +1°C° 0 mm 5 m/s 738 mmHg 85%
    20:00 +1°C° 0 mm 5 m/s 738 mmHg 85%
    21:00 +1°C° 0 mm 5 m/s 738 mmHg 86%
    22:00 +1°C° 0 mm 5 m/s 738 mmHg 86%
    23:00 +1°C° 0 mm 4 m/s 738 mmHg 87%

    25 Janvier, Jeudi

    Heure Température Précipitation Vent Pression Humidité
    00:00 0°C° 0 mm 4 m/s 738 mmHg 87%
    01:00 0°C° 0 mm 4 m/s 738 mmHg 87%
    02:00 0°C° 0 mm 4 m/s 738 mmHg 88%
    03:00 0°C° 0 mm 4 m/s 737 mmHg 88%
    04:00 0°C° 0,2 mm 4 m/s 737 mmHg 88%
    05:00 +1°C° 0,2 mm 4 m/s 737 mmHg 88%
    06:00 +3°C° 0,2 mm 4 m/s 737 mmHg 88%
    07:00 +1°C° 0,2 mm 4 m/s 738 mmHg 88%
    08:00 +1°C° 0,2 mm 4 m/s 738 mmHg 88%
    09:00 +1°C° 0,2 mm 4 m/s 739 mmHg 88%
    10:00 +3°C° 0,1 mm 4 m/s 739 mmHg 89%
    11:00 +3°C° 0,1 mm 3 m/s 740 mmHg 89%
    12:00 +4°C° 0,1 mm 3 m/s 740 mmHg 89%
    13:00 +4°C° 0,1 mm 2 m/s 741 mmHg 90%
    14:00 +4°C° 0,1 mm 2 m/s 742 mmHg 91%
    15:00 +5°C° 0,1 mm 1 m/s 742 mmHg 92%
    16:00 +4°C° 0,2 mm 2 m/s 743 mmHg 93%
    17:00 +4°C° 0,2 mm 2 m/s 745 mmHg 93%
    18:00 +3°C° 0,2 mm 2 m/s 746 mmHg 94%
    19:00 +2°C° 0,2 mm 3 m/s 747 mmHg 93%
    20:00 +3°C° 0,2 mm 3 m/s 749 mmHg 93%
    21:00 +3°C° 0,2 mm 4 m/s 750 mmHg 92%
    22:00 +3°C° 0,1 mm 4 m/s 752 mmHg 92%
    23:00 +2°C° 0,1 mm 5 m/s 753 mmHg 92%

    26 Janvier, Vendredi

    Heure Température Précipitation Vent Pression Humidité
    00:00 +2°C° 0,1 mm 5 m/s 754 mmHg 91%
    01:00 +1°C° 0,1 mm 5 m/s 755 mmHg 90%
    02:00 +1°C° 0,1 mm 5 m/s 757 mmHg 89%
    03:00 0°C° 0,1 mm 5 m/s 758 mmHg 88%
    04:00 0°C° 0 mm 5 m/s 759 mmHg 88%
    05:00 -1°C° 0 mm 4 m/s 760 mmHg 87%
    06:00 -1°C° 0 mm 4 m/s 761 mmHg 86%
    07:00 -1°C° 0 mm 3 m/s 762 mmHg 86%
    08:00 -1°C° 0 mm 3 m/s 763 mmHg 86%
    09:00 -2°C° 0 mm 2 m/s 764 mmHg 85%
    10:00 -1°C° 0 mm 2 m/s 764 mmHg 83%
    11:00 +1°C° 0 mm 2 m/s 765 mmHg 81%
    12:00 +2°C° 0 mm 2 m/s 766 mmHg 79%
    13:00 +2°C° 0 mm 2 m/s 766 mmHg 80%
    14:00 +2°C° 0 mm 2 m/s 766 mmHg 80%
    15:00 +3°C° 0 mm 1 m/s 766 mmHg 80%
    16:00 +2°C° 0 mm 1 m/s 767 mmHg 82%
    17:00 +1°C° 0 mm 1 m/s 767 mmHg 84%
    18:00 0°C° 0 mm 1 m/s 768 mmHg 86%
    19:00 -2°C° 0 mm 2 m/s 768 mmHg 86%
    20:00 -2°C° 0 mm 2 m/s 768 mmHg 86%
    21:00 -2°C° 0 mm 2 m/s 768 mmHg 87%
    22:00 -2°C° 0 mm 2 m/s 768 mmHg 86%
    23:00 -2°C° 0 mm 2 m/s 768 mmHg 85%
    Voir plus